Location: Unspecified
(52.5095°N, 0.0000°E)
Time: 13:35:32
(UTC+00:00)

SL-16 DEB - Visible Passes

Search period start: 04 April 2026 00:00
Search period end: 14 April 2026 00:00
Orbit: 821 x 945 km, 70.8° (Epoch: 24 March)

Date Brightness Start Highest point End Pass type
(mag) Time Alt. Az. Time Alt. Az. Time Alt. Az.
4 Apr ? 00:32:03 10° NNW 00:37:32 46° NE 00:38:20 43° ENE visible
4 Apr ? 02:17:09 10° NW 02:20:59 35° WNW 02:20:59 35° WNW visible
4 Apr ? 19:09:53 10° WNW 19:13:47 19° NNW 19:17:43 10° NNE visible
4 Apr ? 20:59:11 10° NNW 21:01:12 12° N 21:03:14 10° NNE visible
4 Apr ? 22:44:50 10° NNW 22:48:40 18° NNE 22:52:33 10° ENE visible
5 Apr ? 00:29:24 10° NNW 00:34:58 52° NE 00:35:23 51° ENE visible
5 Apr ? 02:14:38 10° NW 02:18:03 30° WNW 02:18:03 30° WNW visible
5 Apr ? 20:56:47 10° NNW 20:58:49 12° N 21:00:53 10° NNE visible
5 Apr ? 22:42:10 10° NNW 22:46:14 20° NNE 22:49:51 12° ENE visible
6 Apr ? 00:26:46 10° NNW 00:32:24 59° NE 00:32:31 59° ENE visible
6 Apr ? 02:12:07 10° NW 02:15:09 25° WNW 02:15:09 25° WNW visible
6 Apr ? 20:54:20 10° NNW 20:56:27 12° N 20:58:35 10° NNE visible
6 Apr ? 22:39:30 10° NNW 22:43:46 21° NNE 22:47:01 14° ENE visible
7 Apr ? 00:24:07 10° NNW 00:29:40 67° NE 00:29:40 67° NE visible
7 Apr ? 02:09:38 10° NW 02:12:20 22° WNW 02:12:20 22° WNW visible
7 Apr ? 20:51:50 10° NNW 20:54:04 12° N 20:56:20 10° NNE visible
7 Apr ? 22:36:51 10° NNW 22:41:18 23° NE 22:44:13 16° ENE visible
8 Apr ? 00:21:29 10° NNW 00:26:53 73° NNE 00:26:53 73° NNE visible
8 Apr ? 02:07:11 10° NW 02:09:32 19° WNW 02:09:32 19° WNW visible
8 Apr ? 20:49:17 10° NNW 20:51:41 13° N 20:54:07 10° NE visible
8 Apr ? 22:34:10 10° NNW 22:38:50 25° NE 22:41:28 19° ENE visible
9 Apr ? 00:18:51 10° NNW 00:24:07 76° NNW 00:24:07 76° NNW visible
9 Apr ? 02:04:48 10° NW 02:06:47 17° WNW 02:06:47 17° WNW visible
9 Apr ? 20:46:43 10° NNW 20:49:18 13° NNE 20:51:55 10° NE visible
9 Apr ? 22:31:30 10° NNW 22:36:20 28° NE 22:38:43 21° ENE visible
10 Apr ? 00:16:13 10° NNW 00:21:23 72° NW 00:21:23 72° NW visible
10 Apr ? 02:02:28 10° WNW 02:04:03 15° WNW 02:04:03 15° WNW visible
10 Apr ? 20:44:07 10° NNW 20:46:54 14° NNE 20:49:44 10° NE visible
10 Apr ? 22:28:50 10° NNW 22:33:51 30° NE 22:36:00 24° ENE visible
11 Apr ? 00:13:36 10° NW 00:18:41 66° WNW 00:18:41 66° WNW visible
11 Apr ? 02:00:14 10° WNW 02:01:20 13° WNW 02:01:20 13° WNW visible
11 Apr ? 20:41:29 10° NNW 20:44:30 14° NNE 20:47:33 10° NE visible
11 Apr ? 22:26:09 10° NNW 22:31:20 33° NE 22:33:20 27° E visible
12 Apr ? 00:11:00 10° NW 00:16:00 59° W 00:16:00 59° W visible
12 Apr ? 01:58:11 10° WNW 01:58:40 11° WNW 01:58:40 11° WNW visible
12 Apr ? 20:38:52 10° NNW 20:42:06 15° NNE 20:45:23 10° NE visible
12 Apr ? 22:23:29 10° NNW 22:28:48 37° NE 22:30:39 30° E visible
13 Apr ? 00:08:24 10° NW 00:13:20 53° W 00:13:20 53° W visible
13 Apr ? 20:36:13 10° NNW 20:39:41 16° NNE 20:43:12 10° ENE visible
13 Apr ? 22:20:49 10° NNW 22:26:15 41° NE 22:28:01 33° E visible
